| time (UTC) | temp F | wind direction | speed knots | gust knots | rain 1hr in | rain 24hr in | rain mn in | humidity % | barometer mb |
| 20260505140307 | 50 | 7 | 3.5 | 11.3 | 0.01 | 0.00 | 0.06 | 85 | 397.7 |
| 20260505130245 | 50 | 54 | 5.2 | 12.2 | 0.01 | 0.00 | 0.04 | 84 | 300.0 |
| 20260505124743 | 50 | 33 | 7.8 | 13.9 | 0.01 | 0.00 | 0.04 | 85 | 247.2 |
| 20260505124242 | 50 | 29 | 6.1 | 12.2 | 0.01 | 0.00 | 0.04 | 87 | 240.9 |
| 20260505123741 | 50 | 20 | 6.1 | 12.2 | 0.01 | 0.00 | 0.04 | 88 | 241.0 |
| 20260505122725 | 50 | 14 | 7.0 | 12.2 | 0.01 | 0.00 | 0.04 | 87 | 242.5 |
| 20260505122225 | 50 | 5 | 6.1 | 12.2 | 0.01 | 0.00 | 0.04 | 87 | 253.9 |
| 20260505121724 | 50 | 17 | 6.1 | 12.2 | 0.01 | 0.00 | 0.04 | 86 | 291.7 |
| 20260505121223 | 50 | 14 | 7.0 | 12.2 | 0.00 | 0.00 | 0.03 | 85 | 364.6 |
| 20260505120207 | 51 | 313 | 2.6 | 11.3 | 0.00 | 0.00 | 0.03 | 84 | 505.7 |
| 20260505115706 | 50 | 32 | 5.2 | 12.2 | 0.00 | 0.00 | 0.03 | 84 | 256.9 |
| 20260505115206 | 51 | 41 | 6.1 | 13.0 | 0.00 | 0.00 | 0.03 | 84 | 254.3 |
| 20260505114705 | 51 | 32 | 8.7 | 13.0 | 0.00 | 0.00 | 0.03 | 84 | 245.5 |
| 20260505114205 | 51 | 37 | 6.1 | 13.0 | 0.00 | 0.00 | 0.03 | 84 | 236.2 |
| 20260505113705 | 51 | 13 | 7.0 | 13.0 | 0.00 | 0.00 | 0.03 | 84 | 228.8 |
| 20260505113204 | 51 | 22 | 5.2 | 13.0 | 0.00 | 0.00 | 0.03 | 84 | 253.4 |
| 20260505112703 | 51 | 30 | 6.1 | 13.0 | 0.00 | 0.00 | 0.03 | 84 | 249.7 |
| 20260505112202 | 51 | 31 | 7.0 | 12.2 | 0.00 | 0.00 | 0.03 | 84 | 255.1 |
| 20260505111702 | 51 | 23 | 7.0 | 12.2 | 0.00 | 0.00 | 0.03 | 84 | 251.7 |
| 20260505111202 | 51 | 30 | 7.0 | 12.2 | 0.00 | 0.00 | 0.03 | 84 | 263.2 |
| 20260505110146 | 51 | 30 | 6.1 | 13.0 | 0.01 | 0.00 | 0.03 | 85 | 251.6 |
| 20260505102127 | 52 | 27 | 7.0 | 10.4 | 0.01 | 0.00 | 0.03 | 86 | 274.6 |
| 20260505101627 | 52 | 54 | 5.2 | 10.4 | 0.01 | 0.00 | 0.03 | 86 | 305.3 |
| 20260505101127 | 52 | 40 | 4.3 | 10.4 | 0.01 | 0.00 | 0.03 | 86 | 299.3 |
| 20260505100627 | 52 | 47 | 3.5 | 10.4 | 0.01 | 0.00 | 0.03 | 86 | 296.6 |
| 20260505100127 | 52 | 25 | 7.0 | 11.3 | 0.01 | 0.00 | 0.03 | 86 | 310.5 |
| 20260505095627 | 52 | 4 | 4.3 | 11.3 | 0.00 | 0.00 | 0.02 | 86 | 400.9 |
| 20260505095126 | 52 | 20 | 7.0 | 11.3 | 0.00 | 0.00 | 0.02 | 86 | 245.5 |
| 20260505094626 | 53 | 31 | 6.1 | 13.0 | 0.00 | 0.00 | 0.02 | 85 | 274.1 |
| 20260505094126 | 53 | 33 | 4.3 | 13.0 | 0.00 | 0.00 | 0.02 | 85 | 283.8 |
| 20260505093625 | 53 | 9 | 5.2 | 13.0 | 0.00 | 0.00 | 0.02 | 85 | 323.8 |
| 20260505093124 | 53 | 14 | 6.1 | 13.0 | 0.00 | 0.00 | 0.02 | 85 | 316.9 |
| 20260505092624 | 53 | 10 | 5.2 | 13.0 | 0.00 | 0.00 | 0.02 | 85 | 347.8 |
| 20260505092123 | 53 | 7 | 7.8 | 13.0 | 0.00 | 0.00 | 0.02 | 85 | 443.6 |
| 20260505091623 | 53 | 357 | 6.1 | 13.0 | 0.00 | 0.00 | 0.02 | 85 | 560.9 |
| 20260505091122 | 53 | 6 | 7.8 | 15.6 | 0.00 | 0.00 | 0.02 | 85 | 298.7 |
| 20260505090621 | 53 | 17 | 10.4 | 16.5 | 0.00 | 0.00 | 0.02 | 85 | 255.6 |
| 20260505090121 | 53 | 36 | 9.6 | 16.5 | 0.00 | 0.00 | 0.02 | 85 | 286.4 |
| 20260505085620 | 54 | 44 | 7.0 | 12.2 | 0.00 | 0.00 | 0.02 | 86 | 305.6 |
| 20260505085120 | 54 | 44 | 7.0 | 15.6 | 0.00 | 0.00 | 0.02 | 86 | 318.5 |
| 20260505083549 | 55 | 46 | 7.0 | 12.2 | 0.02 | 0.00 | 0.02 | 85 | 274.4 |
| 20260505083049 | 55 | 45 | 6.1 | 16.5 | 0.02 | 0.00 | 0.02 | 87 | 265.6 |
| 20260505082549 | 55 | 14 | 11.3 | 16.5 | 0.02 | 0.00 | 0.02 | 87 | 258.5 |
| 20260505081533 | 56 | 39 | 6.1 | 11.3 | 0.02 | 0.00 | 0.02 | 88 | 262.4 |
| 20260505081032 | 57 | 11 | 5.2 | 11.3 | 0.02 | 0.00 | 0.02 | 88 | 257.2 |
| 20260505080016 | 57 | 2 | 5.2 | 11.3 | 0.02 | 0.00 | 0.02 | 87 | 300.6 |
| 20260505075516 | 57 | 21 | 5.2 | 13.0 | 0.02 | 0.00 | 0.02 | 86 | 249.5 |
| 20260505075016 | 57 | 40 | 3.5 | 15.6 | 0.02 | 0.00 | 0.02 | 86 | 262.3 |
| 20260505073101 | 59 | 4 | 13.9 | 20.0 | 0.01 | 0.00 | 0.01 | 81 | 842.3 |
| 20260505072601 | 61 | 343 | 12.2 | 13.0 | 0.00 | 0.00 | 0.00 | 76 | 974.4 |
| 20260505072101 | 67 | 336 | 13.0 | 12.2 | 0.00 | 0.00 | 0.00 | 66 | 940.0 |
| 20260505071600 | 69 | 295 | 4.3 | 10.4 | 0.00 | 0.00 | 0.00 | 71 | 871.3 |
| 20260505071100 | 69 | 219 | 0.0 | 10.4 | 0.00 | 0.00 | 0.00 | 70 | 811.2 |
| 20260505070600 | 69 | 219 | 0.0 | 10.4 | 0.00 | 0.00 | 0.00 | 70 | 807.6 |
| 20260505065544 | 69 | 220 | 1.7 | 10.4 | 0.00 | 0.00 | 0.00 | 70 | 793.7 |
| 20260505065043 | 69 | 215 | 1.7 | 10.4 | 0.00 | 0.00 | 0.00 | 70 | 770.0 |
| 20260505064542 | 69 | 209 | 3.5 | 10.4 | 0.00 | 0.00 | 0.00 | 70 | 739.3 |
| 20260505064042 | 69 | 173 | 2.6 | 10.4 | 0.00 | 0.00 | 0.00 | 70 | 692.7 |
| 20260505063541 | 69 | 177 | 2.6 | 10.4 | 0.00 | 0.00 | 0.00 | 70 | 669.4 |
| 20260505063040 | 69 | 149 | 1.7 | 10.4 | 0.00 | 0.00 | 0.00 | 70 | 660.9 |
| 20260505062539 | 69 | 169 | 0.9 | 10.4 | 0.00 | 0.00 | 0.00 | 70 | 703.6 |
| 20260505062038 | 70 | 188 | 1.7 | 10.4 | 0.00 | 0.00 | 0.00 | 70 | 726.3 |
| 20260505061537 | 70 | 201 | 1.7 | 10.4 | 0.00 | 0.00 | 0.00 | 70 | 735.4 |
| 20260505060521 | 70 | 169 | 2.6 | 10.4 | 0.00 | 0.00 | 0.00 | 70 | 688.1 |
| 20260505060020 | 70 | 189 | 2.6 | 10.4 | 0.00 | 0.00 | 0.00 | 70 | 689.3 |
| 20260505055519 | 70 | 173 | 1.7 | 10.4 | 0.00 | 0.00 | 0.00 | 69 | 686.1 |
| 20260505054503 | 70 | 176 | 2.6 | 10.4 | 0.00 | 0.00 | 0.00 | 69 | 683.5 |
| 20260505054003 | 70 | 183 | 2.6 | 10.4 | 0.00 | 0.00 | 0.00 | 69 | 679.3 |
| 20260505053503 | 70 | 169 | 3.5 | 10.4 | 0.00 | 0.00 | 0.00 | 69 | 660.3 |
| 20260505053003 | 70 | 167 | 1.7 | 10.4 | 0.00 | 0.00 | 0.00 | 69 | 662.4 |
| 20260505052503 | 70 | 163 | 1.7 | 10.4 | 0.00 | 0.00 | 0.00 | 69 | 660.3 |
| 20260505052002 | 70 | 166 | 2.6 | 10.4 | 0.00 | 0.00 | 0.00 | 69 | 657.7 |
| 20260505050947 | 70 | 162 | 1.7 | 10.4 | 0.00 | 0.00 | 0.00 | 69 | 638.0 |
| 20260505041358 | 72 | 170 | 2.6 | 10.4 | 0.00 | 0.00 | 0.00 | 66 | 662.5 |
| 20260505040858 | 72 | 167 | 1.7 | 10.4 | 0.00 | 0.00 | 0.00 | 65 | 664.0 |
| 20260505035325 | 72 | 179 | 2.6 | 10.4 | 0.00 | 0.00 | 0.00 | 65 | 686.9 |
| 20260505034825 | 73 | 173 | 1.7 | 10.4 | 0.00 | 0.00 | 0.00 | 64 | 665.9 |
| 20260505034324 | 73 | 171 | 2.6 | 10.4 | 0.00 | 0.00 | 0.00 | 64 | 672.9 |
| 20260505033823 | 73 | 167 | 3.5 | 10.4 | 0.00 | 0.00 | 0.00 | 64 | 672.2 |
| 20260505033323 | 73 | 166 | 3.5 | 10.4 | 0.00 | 0.00 | 0.00 | 64 | 675.0 |
| 20260505032822 | 73 | 180 | 4.3 | 10.4 | 0.00 | 0.00 | 0.00 | 64 | 672.5 |
| 20260505032321 | 73 | 173 | 4.3 | 10.4 | 0.00 | 0.00 | 0.00 | 64 | 679.0 |
| 20260505031305 | 73 | 172 | 3.5 | 10.4 | 0.00 | 0.00 | 0.00 | 64 | 696.2 |
| 20260505030804 | 73 | 183 | 1.7 | 10.4 | 0.00 | 0.00 | 0.00 | 64 | 701.8 |
| 20260505030303 | 73 | 176 | 0.9 | 10.4 | 0.00 | 0.00 | 0.00 | 64 | 711.4 |
| 20260505025802 | 73 | 183 | 0.9 | 10.4 | 0.00 | 0.00 | 0.00 | 64 | 733.8 |
| 20260505025301 | 73 | 211 | 1.7 | 10.4 | 0.00 | 0.00 | 0.00 | 64 | 773.1 |
| 20260505024800 | 73 | 210 | 2.6 | 10.4 | 0.00 | 0.00 | 0.00 | 64 | 749.6 |
| 20260505024300 | 73 | 189 | 2.6 | 10.4 | 0.00 | 0.00 | 0.00 | 64 | 719.0 |
| 20260505022729 | 74 | 185 | 0.9 | 10.4 | 0.00 | 0.00 | 0.00 | 64 | 708.9 |
| 20260505021713 | 74 | 176 | 0.9 | 10.4 | 0.00 | 0.00 | 0.00 | 64 | 694.3 |
| 20260505021212 | 74 | 169 | 1.7 | 10.4 | 0.00 | 0.00 | 0.00 | 64 | 699.2 |
| 20260505020711 | 74 | 195 | 1.7 | 10.4 | 0.00 | 0.00 | 0.00 | 64 | 738.7 |
| 20260505020210 | 74 | 203 | 1.7 | 10.4 | 0.00 | 0.00 | 0.00 | 63 | 745.9 |
| 20260505015709 | 75 | 186 | 3.5 | 10.4 | 0.00 | 0.00 | 0.00 | 64 | 744.0 |
| 20260505015208 | 75 | 221 | 4.3 | 10.4 | 0.00 | 0.00 | 0.00 | 64 | 738.5 |
| 20260505014708 | 75 | 175 | 3.5 | 10.4 | 0.00 | 0.00 | 0.00 | 64 | 673.1 |
| 20260505014207 | 75 | 154 | 2.6 | 9.6 | 0.00 | 0.00 | 0.00 | 63 | 653.5 |
| 20260505013706 | 75 | 176 | 0.9 | 9.6 | 0.00 | 0.00 | 0.00 | 63 | 659.3 |
| 20260505013206 | 75 | 149 | 0.9 | 9.6 | 0.00 | 0.00 | 0.00 | 63 | 628.2 |
| 20260505012706 | 76 | 173 | 1.7 | 9.6 | 0.00 | 0.00 | 0.00 | 63 | 651.1 |
| 20260505012205 | 76 | 156 | 2.6 | 9.6 | 0.00 | 0.00 | 0.00 | 62 | 651.7 |
| 20260505011149 | 76 | 183 | 3.5 | 9.6 | 0.00 | 0.00 | 0.00 | 62 | 692.8 |
| 20260505010648 | 76 | 177 | 4.3 | 9.6 | 0.00 | 0.00 | 0.00 | 62 | 700.3 |
| 20260505010147 | 77 | 179 | 4.3 | 9.6 | 0.00 | 0.00 | 0.00 | 61 | 684.3 |
| 20260505005131 | 77 | 170 | 4.3 | 9.6 | 0.00 | 0.00 | 0.00 | 61 | 686.3 |
| 20260505004630 | 77 | 160 | 2.6 | 9.6 | 0.00 | 0.00 | 0.00 | 60 | 699.8 |
| 20260505004129 | 78 | 187 | 3.5 | 13.0 | 0.00 | 0.00 | 0.00 | 60 | 723.0 |
| 20260505003628 | 78 | 189 | 5.2 | 13.0 | 0.00 | 0.00 | 0.00 | 59 | 734.0 |
| 20260505003128 | 78 | 181 | 2.6 | 11.3 | 0.00 | 0.00 | 0.00 | 59 | 747.6 |
| 20260505002627 | 79 | 204 | 7.0 | 11.3 | 0.00 | 0.00 | 0.00 | 59 | 777.5 |
| 20260505002127 | 79 | 221 | 3.5 | 12.2 | 0.00 | 0.00 | 0.00 | 58 | 782.8 |
| 20260505001626 | 79 | 209 | 3.5 | 12.2 | 0.00 | 0.00 | 0.00 | 58 | 768.7 |
| 20260505001125 | 79 | 203 | 6.1 | 12.2 | 0.00 | 0.00 | 0.00 | 57 | 762.8 |
| 20260505000624 | 79 | 195 | 4.3 | 12.2 | 0.00 | 0.00 | 0.00 | 57 | 767.6 |
| 20260505000123 | 80 | 204 | 4.3 | 12.2 | 0.00 | 0.00 | 0.00 | 57 | 778.5 |
| 20260504235623 | 80 | 212 | 4.3 | 12.2 | 0.00 | 0.00 | 0.00 | 56 | 780.2 |
| 20260504235122 | 80 | 202 | 4.3 | 11.3 | 0.00 | 0.00 | 0.00 | 56 | 772.1 |
| 20260504234621 | 80 | 216 | 4.3 | 11.3 | 0.00 | 0.00 | 0.00 | 56 | 767.6 |
| 20260504234121 | 80 | 205 | 5.2 | 11.3 | 0.00 | 0.00 | 0.00 | 55 | 761.1 |
| 20260504233620 | 80 | 196 | 6.1 | 12.2 | 0.00 | 0.00 | 0.00 | 55 | 754.3 |
| 20260504233119 | 81 | 204 | 6.1 | 12.2 | 0.00 | 0.00 | 0.00 | 55 | 748.6 |
| 20260504232618 | 81 | 193 | 5.2 | 12.2 | 0.00 | 0.00 | 0.00 | 54 | 732.8 |
| 20260504232117 | 81 | 182 | 4.3 | 12.2 | 0.00 | 0.00 | 0.00 | 54 | 731.5 |
| 20260504231616 | 81 | 191 | 7.0 | 12.2 | 0.00 | 0.00 | 0.00 | 54 | 752.4 |
| 20260504231115 | 81 | 204 | 5.2 | 10.4 | 0.00 | 0.00 | 0.00 | 53 | 767.4 |
| 20260504230614 | 81 | 198 | 2.6 | 13.0 | 0.00 | 0.00 | 0.00 | 54 | 766.3 |
| 20260504225558 | 81 | 191 | 2.6 | 13.0 | 0.00 | 0.00 | 0.00 | 53 | 746.6 |
| 20260504225057 | 81 | 193 | 3.5 | 13.0 | 0.00 | 0.00 | 0.00 | 53 | 759.3 |
| 20260504224041 | 82 | 211 | 4.3 | 13.0 | 0.00 | 0.00 | 0.00 | 51 | 784.8 |
| 20260504223025 | 83 | 234 | 4.3 | 13.0 | 0.00 | 0.00 | 0.00 | 49 | 801.4 |
| 20260504222524 | 83 | 206 | 7.0 | 12.2 | 0.00 | 0.00 | 0.00 | 48 | 776.4 |
| 20260504222023 | 83 | 219 | 5.2 | 19.1 | 0.00 | 0.00 | 0.00 | 48 | 797.0 |
| 20260504221522 | 83 | 196 | 4.3 | 19.1 | 0.00 | 0.00 | 0.00 | 49 | 771.9 |
| 20260504221022 | 83 | 220 | 7.0 | 15.6 | 0.00 | 0.00 | 0.00 | 48 | 778.6 |
| 20260504220006 | 83 | 206 | 6.1 | 16.5 | 0.00 | 0.00 | 0.00 | 49 | 794.0 |
| 20260504215506 | 83 | 211 | 4.3 | 13.9 | 0.00 | 0.00 | 0.00 | 49 | 803.4 |
| 20260504215006 | 83 | 201 | 6.1 | 13.9 | 0.00 | 0.00 | 0.00 | 49 | 799.9 |
| 20260504214506 | 82 | 219 | 7.0 | 13.9 | 0.00 | 0.00 | 0.00 | 49 | 811.4 |
| 20260504214005 | 82 | 211 | 5.2 | 12.2 | 0.00 | 0.00 | 0.00 | 49 | 799.9 |
| 20260504212949 | 82 | 208 | 5.2 | 12.2 | 0.00 | 0.00 | 0.00 | 49 | 784.9 |
| 20260504212448 | 82 | 219 | 6.1 | 17.4 | 0.00 | 0.00 | 0.00 | 50 | 784.6 |
| 20260504211947 | 82 | 202 | 5.2 | 17.4 | 0.00 | 0.00 | 0.00 | 50 | 766.3 |
| 20260504210930 | 81 | 197 | 7.8 | 15.6 | 0.00 | 0.00 | 0.00 | 50 | 760.4 |
| 20260504210429 | 81 | 199 | 7.0 | 15.6 | 0.00 | 0.00 | 0.00 | 49 | 777.4 |
| 20260504205928 | 81 | 222 | 5.2 | 13.0 | 0.00 | 0.00 | 0.00 | 50 | 794.4 |
| 20260504204912 | 81 | 229 | 6.1 | 18.2 | 0.00 | 0.00 | 0.00 | 49 | 816.5 |
| 20260504204411 | 82 | 222 | 6.1 | 18.2 | 0.00 | 0.00 | 0.00 | 49 | 797.2 |
| 20260504203910 | 82 | 195 | 5.2 | 13.0 | 0.00 | 0.00 | 0.00 | 49 | 776.8 |
| 20260504203410 | 82 | 215 | 6.1 | 13.0 | 0.00 | 0.00 | 0.00 | 49 | 787.1 |
| 20260504202909 | 82 | 207 | 6.1 | 18.2 | 0.00 | 0.00 | 0.00 | 49 | 780.9 |
| 20260504202409 | 82 | 213 | 5.2 | 17.4 | 0.00 | 0.00 | 0.00 | 50 | 786.7 |
| 20260504201908 | 82 | 215 | 6.1 | 13.9 | 0.00 | 0.00 | 0.00 | 49 | 775.5 |
| 20260504201407 | 82 | 191 | 7.8 | 11.3 | 0.00 | 0.00 | 0.00 | 48 | 768.5 |
| 20260504200351 | 82 | 184 | 7.8 | 15.6 | 0.00 | 0.00 | 0.00 | 49 | 769.6 |
| 20260504195850 | 82 | 210 | 6.1 | 13.9 | 0.00 | 0.00 | 0.00 | 50 | 795.5 |
| 20260504195349 | 82 | 210 | 7.0 | 13.9 | 0.00 | 0.00 | 0.00 | 49 | 793.7 |
| 20260504194849 | 81 | 205 | 7.0 | 13.9 | 0.00 | 0.00 | 0.00 | 50 | 788.8 |
| 20260504194348 | 82 | 194 | 8.7 | 13.0 | 0.00 | 0.00 | 0.00 | 49 | 787.3 |
| 20260504193847 | 81 | 206 | 4.3 | 13.0 | 0.00 | 0.00 | 0.00 | 50 | 782.0 |
| 20260504191322 | 81 | 199 | 5.2 | 16.5 | 0.00 | 0.00 | 0.00 | 50 | 780.8 |
| 20260504190821 | 81 | 227 | 6.1 | 16.5 | 0.00 | 0.00 | 0.00 | 50 | 803.3 |
| 20260504190320 | 81 | 216 | 6.1 | 15.6 | 0.00 | 0.00 | 0.00 | 50 | 782.5 |
| 20260504185304 | 81 | 209 | 4.3 | 13.0 | 0.00 | 0.00 | 0.00 | 51 | 796.9 |
| 20260504184803 | 80 | 205 | 7.0 | 13.0 | 0.00 | 0.00 | 0.00 | 50 | 802.1 |
| 20260504184303 | 80 | 216 | 7.0 | 18.2 | 0.00 | 0.00 | 0.00 | 52 | 803.3 |
| 20260504183247 | 80 | 239 | 7.0 | 24.3 | 0.00 | 0.00 | 0.00 | 50 | 809.3 |
| 20260504182746 | 80 | 210 | 8.7 | 24.3 | 0.00 | 0.00 | 0.00 | 50 | 772.2 |
| 20260504182245 | 79 | 205 | 6.1 | 15.6 | 0.00 | 0.00 | 0.00 | 52 | 754.3 |
| 20260504181744 | 79 | 201 | 6.1 | 17.4 | 0.00 | 0.00 | 0.00 | 52 | 742.9 |
| 20260504180728 | 78 | 202 | 6.1 | 19.1 | 0.00 | 0.00 | 0.00 | 52 | 759.3 |
| 20260504180227 | 78 | 211 | 7.8 | 19.1 | 0.00 | 0.00 | 0.00 | 52 | 757.5 |
| 20260504175727 | 78 | 205 | 6.1 | 16.5 | 0.00 | 0.00 | 0.00 | 52 | 756.2 |
| 20260504174205 | 78 | 194 | 5.2 | 13.9 | 0.00 | 0.00 | 0.00 | 53 | 788.0 |
| 20260504173704 | 77 | 245 | 7.0 | 15.6 | 0.00 | 0.00 | 0.00 | 52 | 809.5 |
| 20260504173203 | 77 | 196 | 6.1 | 16.5 | 0.00 | 0.00 | 0.00 | 52 | 778.3 |
| 20260504172703 | 77 | 202 | 6.1 | 20.0 | 0.00 | 0.00 | 0.00 | 52 | 810.4 |
| 20260504172202 | 77 | 214 | 8.7 | 20.0 | 0.00 | 0.00 | 0.00 | 52 | 801.6 |
| 20260504171701 | 77 | 212 | 7.8 | 16.5 | 0.00 | 0.00 | 0.00 | 52 | 808.4 |
| 20260504171201 | 77 | 225 | 7.0 | 19.1 | 0.00 | 0.00 | 0.00 | 53 | 809.1 |
| 20260504170701 | 76 | 226 | 8.7 | 19.1 | 0.00 | 0.00 | 0.00 | 52 | 813.0 |
| 20260504170200 | 76 | 208 | 7.8 | 17.4 | 0.00 | 0.00 | 0.00 | 53 | 800.3 |
| 20260504160106 | 72 | 206 | 5.2 | 13.9 | 0.00 | 0.00 | 0.00 | 56 | 777.5 |
| 20260504151058 | 71 | 212 | 7.8 | 19.1 | 0.00 | 0.00 | 0.00 | 54 | 799.0 |
| 20260504150557 | 72 | 220 | 7.8 | 19.1 | 0.00 | 0.00 | 0.00 | 54 | 793.2 |